Marshfield, WI

1:12 PM CST on November 18, 2019 (GMT -0600)
Marshfield Municipal

Weather History for KMFI - September, 2019

Change the Weather History Date:

Saturday, September 7, 2019

  Actual Average Record
Temperature  
Mean Temperature 58 °F -  
Max Temperature 64 °F 75 °F 97 °F (1985)
Min Temperature 53 °F 50 °F 34 °F (1956)
Degree Days  
Heating Degree Days 6    
Growing Degree Days 8 (Base 50)    
Moisture  
Dew Point 51 °F    
Average Humidity 76    
Maximum Humidity 97    
Minimum Humidity 58    
Precipitation  
Precipitation 0.00 in - - ()
Sea Level Pressure  
Sea Level Pressure 30.07 in    
Wind  
Wind Speed 7 mph (NNW)    
Max Wind Speed 12 mph    
Max Gust Speed -    
Visibility 10 miles    
Events      
Averages and records for this station are not official NWS values.
T = Trace of Precipitation, MM = Missing Value Source: NWS Daily Summary

Daily Weather History Graph

Daily Weather History Graph

Search for Another Location

Airport or City:

Astronomy

Sep. 07, 2019 Rise Set
Actual Time 6:30 AM CDT 7:26 PM CDT
Civil Twilight 6:00 AM CDT 7:56 PM CDT
Nautical Twilight 5:24 AM CDT 8:31 PM CDT
Astronomical Twilight 4:47 AM CDT 9:08 PM CDT
Moon 3:54 PM CDT (9/7) 12:10 AM CDT (9/7)
Length of Visible Light 13h 56m
Length of Day
12h 56m
Waxing Gibbous, 66% of the Moon is Illuminated
Sep 7
Waxing Gibbous
Sep 13
Full
Sep 21
Last Quarter
Sep 28
New
Oct 5
First Quarter

Hourly Weather History & Observations

Time (CDT) Temp. Dew Point Humidity Pressure Visibility Wind Dir Wind Speed Gust Speed Precip Events Conditions
12:54 AM 55.0 °F 53.1 °F 93% 30.04 in 10.0 mi SW 4.6 mph - N/A   Mostly Cloudy
1:54 AM 55.9 °F 53.1 °F 90% 30.04 in 10.0 mi WSW 3.5 mph - N/A   Partly Cloudy
2:54 AM 57.0 °F 54.0 °F 89% 30.03 in 10.0 mi WNW 6.9 mph - N/A   Scattered Clouds
3:54 AM 55.0 °F 53.1 °F 93% 30.03 in 10.0 mi WNW 6.9 mph - N/A   Clear
4:54 AM 54.0 °F 53.1 °F 97% 30.03 in 10.0 mi NW 6.9 mph - N/A   Clear
5:54 AM 53.1 °F 52.0 °F 96% 30.04 in 9.0 mi NNW 8.1 mph - N/A   Clear
6:54 AM 53.1 °F 51.1 °F 93% 30.05 in 9.0 mi NW 6.9 mph - N/A   Clear
7:54 AM 55.9 °F 53.1 °F 90% 30.05 in 10.0 mi NNW 10.4 mph - N/A   Clear
8:54 AM 60.1 °F 53.1 °F 78% 30.06 in 10.0 mi North 9.2 mph - N/A   Clear
9:54 AM 63.0 °F 53.1 °F 70% 30.06 in 10.0 mi NNW 9.2 mph - N/A   Clear
10:54 AM 64.0 °F 51.1 °F 63% 30.06 in 10.0 mi North 8.1 mph - N/A   Clear
11:54 AM 64.0 °F 50.0 °F 60% 30.06 in 10.0 mi North 8.1 mph - N/A   Clear
12:54 PM 64.9 °F 50.0 °F 58% 30.07 in 10.0 mi NNW 9.2 mph - N/A   Clear
1:54 PM 63.0 °F 48.0 °F 58% 30.08 in 10.0 mi NW 10.4 mph - N/A   Clear
2:54 PM 64.9 °F 50.0 °F 58% 30.08 in 10.0 mi NW 11.5 mph - N/A   Partly Cloudy
3:54 PM 64.0 °F 51.1 °F 63% 30.08 in 10.0 mi NNW 10.4 mph - N/A   Mostly Cloudy
4:54 PM 64.0 °F 51.1 °F 63% 30.08 in 10.0 mi NNW 10.4 mph - N/A   Clear
5:54 PM 62.1 °F 48.9 °F 62% 30.07 in 10.0 mi North 8.1 mph - N/A   Clear
6:54 PM 60.1 °F 50.0 °F 69% 30.06 in 10.0 mi NNE 4.6 mph - N/A   Clear
7:54 PM 57.0 °F 51.1 °F 81% 30.07 in 10.0 mi Calm Calm - N/A   Clear
8:54 PM 57.9 °F 48.9 °F 72% 30.10 in 10.0 mi NE 5.8 mph - N/A   Overcast
9:54 PM 57.0 °F 48.0 °F 72% 30.11 in 10.0 mi NE 8.1 mph - N/A   Overcast
10:54 PM 55.9 °F 48.0 °F 75% 30.12 in 10.0 mi NNE 6.9 mph - N/A   Overcast
11:54 PM 55.0 °F 48.0 °F 77% 30.12 in 10.0 mi NE 9.2 mph - N/A   Overcast